Terminal Aerodrome Forecast
Issued by NWS

Home | Current Version | Previous Version | Text Only | Print | Product List | Glossary On
Versions: 1 2 3 4 5 6 7 8 9 10 11 12 13 14 15 16 17 18 19 20 21 22 23
000
FTUS41 KCAR 271141
TAFBHB
TAF
KBHB 271141Z 2712/2812 01027G38KT 1/4SM +SN BLSN VV002
      TEMPO 2715/2718 1/2SM SN BLSN OVC003
     FM271800 02037G43KT 3/4SM -SN BLSN OVC005
     FM280000 35023G33KT 1 1/2SM -SN BLSN OVC008
      AMD LTD TO CLD VIS AND WIND=

USA.gov is the U.S. government's official web portal to all federal, state and local government web resources and services.